Regional Weather Roundup
Issued by NWS

Home | Current Version | Previous Version | Text Only | Print | Product List | Glossary Off
Versions: 1 2 3 4 5 6 7 8 9 10 11 12 13 14 15 16 17 18 19 20 21 22 23 24 25 26 27 28 29 30 31 32 33 34 35 36 37 38 39 40 41 42 43 44 45 46 47 48 49 50

000
ASUS45 KBOU 061807
RWRCO

WEATHER ROUNDUP FOR COLORADO
NATIONAL WEATHER SERVICE DENVER/BOULDER CO
1100 AM MST FRI MAR 06 2015

NOTE: "FAIR" INDICATES FEW OR NO CLOUDS BELOW 12000 FEET WITH NO
SIGNIFICANT WEATHER AND/OR OBSTRUCTIONS TO VISIBILITY.

COZ001>005-013-030-031-061900-
...NORTHWEST COLORADO...

CITY           SKY/WX    TMP DP  RH WIND       PRES   REMARKS
CRAIG          SUNNY     34  16  47 E8        30.45S WCI  27
HAYDEN         SUNNY     30  14  51 SE5       30.44S WCI  25
MEEKER         SUNNY     40  18  41 CALM      30.43F
MOUNT WERNER   NOT AVBL
STEAMBOAT SPGS SUNNY     23  10  58 CALM      30.44F
WALDEN         SUNNY     32  12  43 S14       30.38S WCI  22
$$

COZ006>008-011-061900-
...WEST CENTRAL VALLEYS...

CITY           SKY/WX    TMP DP  RH WIND       PRES   REMARKS
GRAND JUNCTION SUNNY     42  17  36 SE7       30.46F
MONTROSE       SUNNY     37  17  44 S3        30.47F
EAGLE          SUNNY     30  16  55 CALM      30.49F
RIFLE          SUNNY     38  17  42 E5        30.46F
DELTA          SUNNY     39  16  39 CALM      30.47F
NUCLA          SUNNY     37  18  44 W3        30.47F
$$

COZ017>023-064>068-061900-
...SOUTHWEST COLORADO...

CITY           SKY/WX    TMP DP  RH WIND       PRES   REMARKS
DURANGO        SUNNY     35  19  52 NE5       30.42S WCI  31
CORTEZ         SUNNY     40  19  43 VRB3      30.42F
PAGOSA SPRINGS SUNNY     39   8  27 CALM      30.42S
TELLURIDE      SUNNY     37   4  25 CALM      30.42F
WOLF CREEK PAS SUNNY     28   9  43 SW10      30.48F WCI  19
$$

COZ009-010-012-014-032>034-037-058>063-061900-
...CENTRAL COLORADO...

CITY           SKY/WX    TMP DP  RH WIND       PRES   REMARKS
ASPEN          SUNNY     34   7  32 N6        30.42S WCI  29
BUENA VISTA    SUNNY     37   3  24 SW3       30.37F
COPPER MTN     SUNNY     27   0  31 W7        30.43R WCI  19
BERTHOUD PASS  NOT AVBL
COTTONWOOD PAS SUNNY     37  -8  14 CALM      30.38F
GUNNISON       SUNNY     14  10  85 SE3       30.53S
KREMMLING      SUNNY     23   9  54 CALM      30.48F
LEADVILLE      SUNNY     32   0  25 MISG      30.39S
SALIDA         SUNNY     42   3  20 N8        30.44F
SUNLIGHT       SUNNY     30  10  43 CALM        N/A
WILKERSON PASS SUNNY     30  -4  22 NW10G25   30.40S WCI  21
$$

COZ069>075-061900-
...SAN LUIS VALLEY/SANGRE DE CRISTO MOUNTAINS...

CITY           SKY/WX    TMP DP  RH WIND       PRES   REMARKS
ALAMOSA        SUNNY     35  16  45 CALM      30.42F
LA VETA PASS   SUNNY     34   9  35 S10G17    30.39S WCI  26
SAGUACHE       SUNNY     36  12  38 S10       30.42F
$$

COZ035-036-038>040-061900-
...NORTHERN COLORADO FRONT RANGE...

CITY           SKY/WX    TMP DP  RH WIND       PRES   REMARKS
DENVER INTL AP MOSUNNY   43  22  43 SE7       30.29F
DMNS CITY PARK   N/A     55   6  14 S3        30.28S
AURORA         NOT AVBL
FRONT RANGE AP MOSUNNY   46  19  34 S5        30.30
ERIE MUNI ARPT SUNNY     43  22  44 NW3       30.29S
BOULDER MUN AP SUNNY     41  16  36 CALM      30.29R
CENTENNIAL     MOSUNNY   45  10  24 SE7       30.29F
BROOMFIELD     MOSUNNY   45  16  31 SE5       30.29S
FORT COLLINS   SUNNY     39  23  52 CALM      30.31S
LONGMONT       SUNNY     52  15  22 CALM      30.30F
$$

COZ041-046-047-076>085-087-088-061900-
...PIKES PEAK/PALMER DIVIDE AND SOUTHERN FOOTHILLS...

CITY           SKY/WX    TMP DP  RH WIND       PRES   REMARKS
COLO. SPRINGS  SUNNY     47   4  17 E5        30.32S
A. F. ACADEMY  SUNNY     45  11  24 S8        30.30S
ELLICOTT       NOT AVBL
FALCON         SUNNY     45  12  26 CALM      30.33S
FORT CARSON    SUNNY     45  14  28 SE2       30.30F
LIMON          SUNNY     37  21  52 N5        30.32S
MONUMENT HILL  SUNNY     43  10  26 SE3       30.30F
TRINIDAD       SUNNY     48  18  30 VRB3      30.32F
$$

COZ042>045-048>051-090-091-061900-
...NORTHEAST COLORADO...

CITY           SKY/WX    TMP DP  RH WIND       PRES   REMARKS
GREELEY ARPT   SUNNY     46  21  36 CALM      30.29S
AKRON          SUNNY     49  16  26 W13       30.29S
BURLINGTON     SUNNY     54  14  20 W14       30.31F
WRAY           SUNNY     57  17  20 W15G21    30.28F
STERLING       SUNNY     54  19  26 NW14G22   30.26F
HOLYOKE        SUNNY     57  19  23 W14       30.27S
FORT MORGAN    SUNNY     46  20  35 SW7       30.30F
$$

COZ086-089-092>099-061900-
...SOUTHEAST COLORADO...

CITY           SKY/WX    TMP DP  RH WIND       PRES   REMARKS
PUEBLO         SUNNY     45  20  36 CALM      30.32F
LA JUNTA       SUNNY     47  26  44 MISG      30.33F
LAMAR          SUNNY     47  30  51 W6        30.32F
SPRINGFIELD      N/A     52  14  22 SE7       30.33S
$$



USA.gov is the U.S. government's official web portal to all federal, state and local government web resources and services.